Helicity
228 297 243 127 206 243 204 160 125 105 87 103 50 71 76 102 84 94 124 103 119 204 223 322 400 439 476 540 589 647 647 599 497 399 311 278 256 234 198 177 207 213 168 136
329 252 120 183 160 164 154 162 122 112 63 78 52 63 35 40 140 143 131 125 105 224 317 372 442 486 493 493 554 572 587 525 458 400 327 238 203 196 170 162 164 184 157 132
279 202 144 167 173 142 170 165 136 108 107 98 79 7 99 116 253 200 155 239 293 301 353 392 438 476 461 460 522 513 447 498 432 404 338 272 187 145 125 165 172 196 151 120
168 125 157 155 123 130 148 95 112 119 116 70 99 38 96 149 226 158 137 188 243 314 376 412 420 505 532 444 446 447 433 348 337 399 295 253 183 191 196 161 116 105 129 137
110 103 115 129 76 195 113 134 147 167 168 166 177 140 100 194 218 165 159 180 271 393 418 430 456 452 415 466 423 427 321 426 40 207 236 201 150 184 158 159 144 101 104 114
113 175 165 106 119 129 160 194 174 206 211 198 144 145 200 160 92 91 129 181 232 289 344 428 348 384 447 377 422 324 383 280 343 160 138 131 99 145 161 174 118 114 72 102
164 116 163 198 208 184 187 181 210 212 230 187 177 179 214 159 82 73 59 50 76 141 196 201 294 259 219 295 415 529 570 464 238 76 100 143 109 128 121 100 65 83 63 80
149 151 102 103 114 192 209 211 246 230 212 167 158 181 192 164 98 30 19 33 45 67 83 85 45 24 59 145 232 272 164 133 132 77 45 65 91 89 81 97 103 76 48 61
145 129 90 71 126 195 164 177 129 196 196 239 204 231 222 194 142 72 43 24 1 22 49 50 47 17 16 38 -5 50 50 31 15 20 29 52 62 62 85 129 110 102 99 76
152 178 117 125 178 201 158 117 219 205 245 256 177 211 204 134 95 72 66 35 52 44 61 55 28 26 -3 -13 20 11 28 -2 9 18 17 29 57 76 89 105 125 118 112 112
230 198 182 194 190 214 233 227 223 203 237 239 232 192 153 141 70 59 61 102 87 73 56 31 10 16 30 25 31 24 49 42 12 -11 -21 3 45 60 54 60 80 88 102 104
217 203 177 211 235 206 212 166 217 199 186 279 318 206 166 158 125 118 110 133 135 102 58 43 23 27 31 33 53 42 40 55 61 49 52 55 52 62 76 94 99 96 80 70
171 203 180 200 218 203 170 202 174 253 300 262 348 228 182 178 182 139 196 188 160 101 85 58 53 53 48 52 46 48 47 38 50 53 71 80 89 98 98 93 109 111 107 107
147 181 188 164 144 164 142 122 129 186 274 380 328 292 241 207 240 278 308 253 172 132 113 77 66 66 72 71 68 71 73 79 94 100 103 112 113 113 114 109 109 113 104 117
157 149 171 160 168 161 159 150 145 130 186 266 214 177 246 218 345 331 313 260 184 164 127 99 84 89 99 107 79 76 79 98 91 97 111 125 118 105 79 65 60 49 53 77
203 182 139 164 151 113 101 122 145 121 145 114 125 186 211 438 422 386 297 244 204 168 129 112 109 111 110 118 102 99 90 83 80 83 94 97 101 84 57 28 37 38 43 43
182 185 203 171 133 136 149 111 173 206 200 156 158 193 405 402 340 342 284 225 208 153 133 136 136 121 106 89 81 77 60 49 67 71 82 93 81 73 38 13 23 41 48 32
255 211 189 177 123 142 189 170 119 152 230 232 262 200 277 394 455 385 260 218 198 163 143 147 125 111 90 81 61 30 24 39 53 64 72 86 55 33 45 46 52 70 47 37
291 255 220 192 179 199 129 141 127 161 137 200 243 306 368 457 480 376 290 195 179 180 153 152 125 94 66 71 52 36 32 11 41 48 25 5 21 33 49 61 52 52 46 31
217 189 190 217 200 157 111 128 167 189 122 164 289 290 337 365 289 225 208 223 208 174 168 151 116 88 76 54 34 21 7 -9 -4 16 21 20 19 26 33 31 29 26 12 3
229 227 189 225 192 168 122 125 157 188 76 160 226 244 244 219 150 210 239 224 200 187 166 122 94 80 47 11 11 20 9 5 10 3 7 6 -2 1 8 13 24 19 -8 6
237 255 242 223 204 132 165 197 135 93 107 153 158 148 198 204 215 226 228 224 211 174 118 75 64 51 24 9 5 21 14 -7 7 -5 -17 -25 -23 -16 -9 -3 -17 -22 -31 -16
156 162 193 169 124 164 99 107 115 95 108 104 171 163 220 221 218 216 206 190 139 95 64 31 26 24 24 7 1 6 13 11 4 0 -8 -12 -24 -42 -39 -36 -34 -47 -53 -54
162 188 186 184 141 149 152 186 109 104 120 117 141 208 218 249 224 218 180 130 90 60 35 24 22 30 20 18 26 27 24 10 5 2 -7 -21 -29 -30 -43 -65 -77 -87 -92 -87
142 163 161 144 112 120 83 113 140 166 150 176 191 181 219 257 186 152 112 81 57 46 38 34 38 33 33 28 40 30 24 5 4 2 -9 -14 -34 -36 -46 -48 -57 -81 -73 -76
113 102 129 66 66 113 55 159 150 138 127 146 163 161 144 181 153 119 95 63 36 38 50 54 44 34 33 41 36 33 28 11 3 3 -17 -35 -29 -17 -4 -25 -42 -4 -1 -4
Wind_Speed
40 51 54 50 45 51 56 65 75 73 71 79 80 88 83 81 75 81 81 78 70 58 54 56 56 55 52 51 51 52 52 53 52 47 48 48 49 48 48 53 56 58 61 63
49 61 51 51 48 52 57 67 73 73 60 79 86 92 84 63 64 66 73 74 54 53 55 56 57 56 55 54 54 54 53 52 52 51 51 47 49 48 47 54 58 61 62 63
50 49 41 43 48 54 53 57 62 70 73 69 84 80 58 56 64 68 70 63 56 54 54 55 57 58 56 56 54 52 51 52 55 55 55 49 48 49 55 64 65 67 65 65
48 47 50 48 52 48 61 50 55 65 67 77 64 90 70 62 68 71 63 60 58 56 54 55 57 59 59 57 52 50 50 49 55 52 54 51 51 54 59 65 66 66 65 67
45 42 42 46 49 45 58 54 60 57 63 73 69 75 69 67 75 69 60 59 57 56 55 56 56 56 56 55 51 51 52 51 49 52 56 55 56 55 59 64 67 66 68 67
47 42 43 45 44 40 44 51 56 58 62 81 69 60 78 71 66 56 57 56 52 51 52 53 53 52 51 52 53 50 54 55 60 59 58 59 61 61 66 69 67 68 67 68
57 59 52 47 55 49 47 54 71 74 70 77 55 59 68 57 55 49 47 44 44 45 47 49 54 54 53 56 58 55 57 57 59 59 61 63 63 63 65 67 68 71 69 68
58 68 46 43 47 50 46 45 57 75 74 71 58 68 62 44 41 39 38 39 42 46 48 49 49 49 53 56 59 55 56 55 60 61 62 65 63 63 64 66 67 66 69 69
54 59 41 38 37 31 44 48 45 63 65 75 64 58 50 36 34 33 32 34 37 42 46 50 53 54 55 53 55 54 53 54 57 58 61 63 63 64 65 66 67 67 69 70
50 65 47 41 36 39 41 29 50 49 71 77 66 62 54 33 28 21 23 28 35 40 45 50 53 54 57 58 56 56 53 55 57 59 60 62 63 63 64 64 67 69 66 66
50 56 58 43 46 46 42 46 45 47 52 70 76 64 44 22 15 16 21 26 30 36 43 49 53 55 55 57 57 58 56 55 57 59 60 61 62 63 63 65 67 69 68 66
49 52 68 61 49 42 45 51 45 57 63 58 59 63 31 14 13 16 24 26 29 36 41 48 54 57 59 60 59 57 57 56 57 57 57 57 59 61 62 65 67 67 67 65
39 48 63 62 56 52 56 54 51 57 62 58 57 56 23 16 16 17 22 26 31 32 41 51 55 58 60 59 58 57 57 56 55 54 55 56 59 61 63 64 66 66 67 68
44 56 62 73 63 52 57 58 55 56 61 59 52 46 31 23 23 21 23 23 27 34 42 50 54 56 57 57 56 56 56 56 55 54 54 55 57 60 61 63 65 66 67 68
53 72 66 68 66 63 68 71 64 57 59 62 54 59 41 29 25 21 19 24 28 36 43 48 50 52 53 52 53 54 54 54 53 52 53 55 56 57 58 60 63 65 67 69
53 68 62 72 66 64 73 69 64 63 63 59 58 60 40 23 21 21 22 23 30 35 41 44 47 48 50 50 50 52 52 52 51 50 52 52 53 54 56 58 61 64 67 70
56 56 59 75 62 64 74 66 62 61 54 57 58 58 33 29 24 21 21 25 29 33 36 39 42 43 45 47 48 48 49 49 49 50 50 51 51 52 54 57 60 63 66 68
60 59 54 67 58 77 58 54 54 53 52 47 49 40 31 25 25 20 21 23 26 28 31 34 37 40 41 43 43 43 46 48 48 48 49 49 50 51 54 57 60 62 63 67
43 44 58 61 62 65 62 54 49 47 54 44 36 28 23 18 23 28 23 22 22 23 26 30 32 34 38 41 40 41 43 44 46 47 48 48 49 51 53 56 59 61 64 67
41 41 44 45 57 67 58 46 40 41 58 25 23 21 17 16 22 28 14 15 17 19 23 26 29 32 36 39 38 38 41 41 41 38 38 37 40 44 46 49 55 58 61 64
44 48 47 46 58 61 48 35 31 40 52 17 14 12 10 14 27 11 6 10 14 18 20 22 25 28 32 34 36 35 33 31 27 28 35 37 39 44 49 50 52 55 58 63
45 42 47 47 53 70 32 30 37 40 31 17 11 6 5 13 12 7 7 9 12 15 18 21 23 23 28 30 33 34 36 36 35 36 36 33 34 42 47 51 53 58 61 65
50 43 44 40 46 39 33 35 33 27 21 20 12 5 3 6 6 7 8 12 13 16 19 21 20 21 24 27 30 32 29 30 31 29 30 37 45 49 52 57 60 63 66 68
42 39 50 45 46 43 38 33 27 24 20 17 12 4 3 6 9 12 14 15 13 16 20 14 18 19 25 26 29 28 25 24 34 39 40 42 46 52 58 62 65 68 70 71
40 30 39 47 44 37 35 32 23 21 15 14 12 7 9 14 17 21 20 17 20 18 13 14 15 19 24 26 26 24 28 35 39 41 42 45 51 57 60 64 67 68 69 71
31 33 35 47 32 34 34 8 6 7 8 8 8 12 14 21 23 24 13 9 20 19 15 13 15 20 23 22 25 30 34 37 40 43 45 49 54 57 60 62 64 66 67 69
Wind_Direction
300 296 296 299 299 303 306 303 302 305 311 308 307 306 310 314 317 318 319 321 322 326 333 335 336 334 330 327 323 318 313 310 309 304 298 298 299 304 308 310 309 307 304 300
300 292 296 304 304 300 300 301 303 307 313 309 307 305 312 319 328 333 331 329 332 331 332 336 337 336 334 329 325 320 316 314 311 309 304 302 301 305 309 313 311 309 305 302
292 305 313 301 303 302 301 301 305 305 310 311 308 308 317 324 331 334 340 343 342 336 333 335 336 336 335 334 331 326 320 315 310 305 303 305 305 306 306 310 310 307 305 303
298 297 300 303 302 302 300 307 306 307 309 306 316 302 310 319 325 330 336 341 342 341 341 340 338 336 337 332 334 331 321 321 306 310 305 309 308 306 310 311 311 307 308 305
304 309 305 299 301 304 302 308 307 307 305 306 305 305 307 318 319 327 335 339 341 341 341 338 339 337 339 334 339 330 316 313 309 316 309 310 309 319 320 318 313 310 307 307
296 309 306 308 313 308 313 310 309 309 307 301 304 299 307 315 321 328 333 338 342 345 345 345 344 343 334 334 336 331 324 316 316 311 309 309 312 320 320 317 315 315 310 307
296 291 295 301 299 307 304 305 303 303 303 302 314 306 308 320 325 328 334 342 350 350 348 341 340 339 343 328 322 325 324 322 319 313 311 312 319 320 321 324 319 314 314 309
299 300 303 303 284 297 298 293 297 302 303 307 312 306 313 324 331 338 344 352 356 359 355 353 341 342 340 329 326 324 317 322 319 314 309 314 310 324 326 326 324 322 316 314
300 301 310 313 312 295 304 295 303 300 304 304 306 311 316 319 324 332 341 348 353 357 360 0 356 356 336 341 333 324 319 320 324 313 315 316 322 324 326 333 325 326 321 312
297 296 300 306 309 308 297 310 305 303 303 303 308 308 309 306 309 327 338 341 341 351 355 353 354 358 350 348 343 334 327 326 323 323 324 323 323 324 328 334 333 330 335 330
286 289 296 300 291 291 298 294 302 305 302 303 305 309 318 301 306 319 330 337 341 347 351 349 348 351 352 350 352 343 336 324 324 323 326 329 330 333 332 333 335 330 337 339
284 291 285 282 296 295 291 292 290 295 302 300 302 303 327 322 321 326 329 332 336 343 345 347 345 344 342 342 342 344 336 329 327 329 334 332 329 333 337 338 338 337 340 347
290 293 291 293 294 294 290 289 287 295 298 283 293 303 312 312 317 323 326 329 333 343 342 341 342 340 340 341 339 338 339 330 326 324 330 335 339 341 343 344 346 348 347 348
287 284 284 285 293 299 295 292 292 289 291 289 276 297 296 291 297 311 317 326 332 338 341 340 340 342 343 343 342 343 343 345 343 341 343 346 346 348 349 351 354 359 360 359
284 280 283 286 289 291 291 291 294 285 284 286 287 288 286 280 287 301 310 315 326 334 337 342 343 346 349 352 351 351 350 351 352 350 350 351 351 353 357 358 0 3 5 5
284 284 285 286 287 288 288 290 291 290 290 285 289 287 301 300 300 301 303 312 322 330 335 342 346 349 350 351 350 352 350 350 347 348 349 351 352 356 358 1 3 5 4 5
282 282 284 284 291 293 289 286 285 288 289 290 280 284 288 290 292 290 297 314 322 330 337 345 349 351 352 351 351 352 352 350 350 350 350 352 355 358 360 3 4 3 3 3
274 278 280 286 294 287 295 300 296 288 287 288 292 287 282 288 301 305 310 318 326 334 342 349 351 351 353 355 1 2 3 359 357 358 358 358 1 4 4 5 6 3 3 3
251 268 281 285 286 294 295 299 300 291 288 288 286 288 290 304 309 308 313 323 332 342 350 354 2 5 9 7 8 8 8 11 8 9 10 7 8 7 3 3 4 4 4 4
268 274 275 285 288 290 300 304 307 301 287 287 280 274 275 291 287 300 315 336 348 359 3 8 13 18 14 12 21 29 25 25 11 357 352 349 351 355 353 353 358 357 1 3
269 270 270 281 288 294 300 308 309 290 295 308 273 269 266 285 308 328 360 355 5 12 16 17 24 22 23 24 28 16 3 352 333 336 351 351 349 354 354 352 350 351 355 360
268 272 275 282 287 285 305 301 292 299 310 313 306 294 303 323 350 20 36 31 32 32 36 39 36 14 19 18 28 20 16 11 2 359 351 340 337 346 348 351 351 354 356 358
271 279 280 280 288 299 296 300 300 309 314 306 314 322 16 2 14 36 48 65 61 59 57 52 36 23 13 13 20 18 351 345 344 334 332 343 354 357 354 356 356 357 358 359
280 283 279 285 286 289 290 293 304 310 312 315 327 23 62 57 74 76 83 83 69 60 68 35 39 23 31 15 15 359 330 318 353 358 351 349 352 360 1 5 6 4 3 2
289 288 282 282 286 291 290 288 288 302 325 340 345 33 82 92 91 96 93 87 81 69 49 43 34 30 25 15 357 325 334 356 2 359 351 349 357 13 19 14 9 9 6 4
293 287 280 277 291 292 293 299 286 304 326 354 56 70 74 97 100 100 87 70 83 77 63 46 28 29 20 354 346 353 355 360 3 357 353 357 6 16 20 14 7 5 5 4